Time,TemperatureF,DewpointF,PressureIn,WindDirection,WindDirectionDegrees,WindSpeedMPH,WindSpeedGustMPH,Humidity,HourlyPrecipIn,Conditions,Clouds,dailyrainin,SoftwareType,DateUTC
2013-02-17 00:01:00,26.6,8.1,29.76,NNW,338,6.0,9.0,45,0.00,,,0.00,Wunderground v.1.15,2013-02-17 05:01:00,
2013-02-17 00:03:00,26.4,7.4,29.76,North,350,7.0,9.0,44,0.00,,,0.00,Wunderground v.1.15,2013-02-17 05:03:00,
2013-02-17 00:05:00,26.4,7.9,29.76,North,351,7.0,9.0,45,0.00,,,0.00,Wunderground v.1.15,2013-02-17 05:05:00,
2013-02-17 00:07:00,26.4,7.9,29.76,NE,42,6.0,10.0,45,0.00,,,0.00,Wunderground v.1.15,2013-02-17 05:07:00,
2013-02-17 00:13:00,26.3,7.8,29.76,North,360,6.0,10.0,45,0.00,,,0.00,Wunderground v.1.15,2013-02-17 05:13:00,
2013-02-17 00:19:00,26.3,7.8,29.76,NNE,27,6.0,6.0,45,0.00,,,0.00,Wunderground v.1.15,2013-02-17 05:19:00,
2013-02-17 00:25:00,26.1,7.1,29.76,North,351,7.0,9.0,44,0.00,,,0.00,Wunderground v.1.15,2013-02-17 05:25:00,
2013-02-17 00:31:00,26.1,6.6,29.76,North,360,8.0,13.0,43,0.00,,,0.00,Wunderground v.1.15,2013-02-17 05:31:00,
2013-02-17 00:37:00,26.0,6.5,29.75,NNW,331,9.0,18.0,43,0.00,,,0.00,Wunderground v.1.15,2013-02-17 05:37:00,
2013-02-17 00:43:00,25.8,6.3,29.75,NE,34,9.0,11.0,43,0.00,,,0.00,Wunderground v.1.15,2013-02-17 05:43:00,
2013-02-17 00:49:00,25.7,6.3,29.75,North,350,8.0,8.0,43,0.00,,,0.00,Wunderground v.1.15,2013-02-17 05:49:00,
2013-02-17 00:55:00,25.7,6.8,29.75,North,9,7.0,10.0,44,0.00,,,0.00,Wunderground v.1.15,2013-02-17 05:55:00,
2013-02-17 01:01:00,25.6,7.2,29.74,NNE,14,6.0,11.0,45,0.00,,,0.00,Wunderground v.1.15,2013-02-17 06:01:00,
2013-02-17 01:07:00,25.4,7.0,29.74,North,350,7.0,11.0,45,0.00,,,0.00,Wunderground v.1.15,2013-02-17 06:07:00,
2013-02-17 01:13:00,25.4,7.0,29.75,NNW,345,8.0,14.0,45,0.00,,,0.00,Wunderground v.1.15,2013-02-17 06:13:00,
2013-02-17 01:19:00,25.3,6.9,29.75,North,360,8.0,12.0,45,0.00,,,0.00,Wunderground v.1.15,2013-02-17 06:19:00,
2013-02-17 01:25:00,25.3,6.9,29.74,NNE,30,7.0,12.0,45,0.00,,,0.00,Wunderground v.1.15,2013-02-17 06:25:00,
2013-02-17 01:31:00,25.1,7.2,29.73,NE,43,6.0,14.0,46,0.00,,,0.00,Wunderground v.1.15,2013-02-17 06:31:00,
2013-02-17 01:37:00,25.0,7.1,29.74,NNW,342,5.0,14.0,46,0.00,,,0.00,Wunderground v.1.15,2013-02-17 06:37:00,
2013-02-17 01:43:00,25.0,7.1,29.74,North,360,4.0,10.0,46,0.00,,,0.00,Wunderground v.1.15,2013-02-17 06:43:00,
2013-02-17 01:49:00,25.0,7.1,29.73,North,5,8.0,8.0,46,0.00,,,0.00,Wunderground v.1.15,2013-02-17 06:49:00,
2013-02-17 01:55:00,24.8,7.4,29.74,NE,40,6.0,8.0,47,0.00,,,0.00,Wunderground v.1.15,2013-02-17 06:55:00,
2013-02-17 02:01:00,24.8,7.9,29.73,NE,38,4.0,6.0,48,0.00,,,0.00,Wunderground v.1.15,2013-02-17 07:01:00,
2013-02-17 02:07:00,24.7,7.3,29.73,NNW,348,4.0,7.0,47,0.00,,,0.00,Wunderground v.1.15,2013-02-17 07:07:00,
2013-02-17 02:13:00,24.5,6.6,29.74,NE,44,6.0,6.0,46,0.00,,,0.00,Wunderground v.1.15,2013-02-17 07:13:00,
2013-02-17 02:19:00,24.4,6.6,29.73,NNE,25,7.0,7.0,46,0.00,,,0.00,Wunderground v.1.15,2013-02-17 07:19:00,
2013-02-17 02:25:00,24.4,7.0,29.73,NW,314,8.0,12.0,47,0.00,,,0.00,Wunderground v.1.15,2013-02-17 07:25:00,
2013-02-17 02:31:00,24.2,6.8,29.74,ESE,108,7.0,10.0,47,0.00,,,0.00,Wunderground v.1.15,2013-02-17 07:31:00,
2013-02-17 02:37:00,24.1,7.2,29.74,NNE,19,5.0,10.0,48,0.00,,,0.00,Wunderground v.1.15,2013-02-17 07:37:00,
2013-02-17 02:43:00,24.1,7.2,29.74,North,351,5.0,5.0,48,0.00,,,0.00,Wunderground v.1.15,2013-02-17 07:43:00,
2013-02-17 02:49:00,23.9,7.0,29.73,North,9,5.0,5.0,48,0.00,,,0.00,Wunderground v.1.15,2013-02-17 07:49:00,
2013-02-17 02:55:00,23.9,7.0,29.73,NNE,13,6.0,9.0,48,0.00,,,0.00,Wunderground v.1.15,2013-02-17 07:55:00,
2013-02-17 03:00:00,23.8,7.4,29.73,North,349,6.0,6.0,49,0.00,,,0.00,Wunderground v.1.15,2013-02-17 08:00:00,
2013-02-17 03:06:00,23.8,7.4,29.73,NNW,328,6.0,12.0,49,0.00,,,0.00,Wunderground v.1.15,2013-02-17 08:06:00,
2013-02-17 03:12:00,23.6,7.2,29.72,NNE,17,6.0,6.0,49,0.00,,,0.00,Wunderground v.1.15,2013-02-17 08:12:00,
2013-02-17 03:18:00,23.6,7.2,29.71,North,351,5.0,11.0,49,0.00,,,0.00,Wunderground v.1.15,2013-02-17 08:18:00,
2013-02-17 03:24:00,23.5,7.6,29.70,NNE,15,5.0,9.0,50,0.00,,,0.00,Wunderground v.1.15,2013-02-17 08:24:00,
2013-02-17 03:30:00,23.3,7.4,29.70,NNW,335,6.0,6.0,50,0.00,,,0.00,Wunderground v.1.15,2013-02-17 08:30:00,
2013-02-17 03:36:00,23.3,7.4,29.70,North,351,6.0,10.0,50,0.00,,,0.00,Wunderground v.1.15,2013-02-17 08:36:00,
2013-02-17 03:42:00,23.2,7.7,29.70,NNE,12,5.0,12.0,51,0.00,,,0.00,Wunderground v.1.15,2013-02-17 08:42:00,
2013-02-17 03:48:00,23.2,7.3,29.70,North,350,6.0,12.0,50,0.00,,,0.00,Wunderground v.1.15,2013-02-17 08:48:00,
2013-02-17 03:54:00,23.2,7.3,29.71,NE,38,7.0,7.0,50,0.00,,,0.00,Wunderground v.1.15,2013-02-17 08:54:00,
2013-02-17 04:00:00,23.0,7.5,29.71,NNE,13,6.0,6.0,51,0.00,,,0.00,Wunderground v.1.15,2013-02-17 09:00:00,
2013-02-17 04:06:00,23.0,7.1,29.71,NNE,24,7.0,9.0,50,0.00,,,0.00,Wunderground v.1.15,2013-02-17 09:06:00,
2013-02-17 04:12:00,23.0,7.1,29.71,NNE,30,6.0,7.0,50,0.00,,,0.00,Wunderground v.1.15,2013-02-17 09:12:00,
2013-02-17 04:18:00,22.9,7.0,29.72,NE,36,5.0,8.0,50,0.00,,,0.00,Wunderground v.1.15,2013-02-17 09:18:00,
2013-02-17 04:24:00,22.9,7.0,29.72,NE,53,6.0,9.0,50,0.00,,,0.00,Wunderground v.1.15,2013-02-17 09:24:00,
2013-02-17 04:30:00,22.9,7.0,29.72,NNE,23,5.0,5.0,50,0.00,,,0.00,Wunderground v.1.15,2013-02-17 09:30:00,
2013-02-17 04:36:00,22.9,7.0,29.71,NNW,346,4.0,7.0,50,0.00,,,0.00,Wunderground v.1.15,2013-02-17 09:36:00,
2013-02-17 04:42:00,22.9,6.6,29.71,NE,44,5.0,11.0,49,0.00,,,0.00,Wunderground v.1.15,2013-02-17 09:42:00,
2013-02-17 04:48:00,22.9,6.6,29.71,North,351,6.0,11.0,49,0.00,,,0.00,Wunderground v.1.15,2013-02-17 09:48:00,
2013-02-17 04:53:00,22.7,6.4,29.72,NW,319,5.0,6.0,49,0.00,,,0.00,Wunderground v.1.15,2013-02-17 09:53:00,
2013-02-17 04:59:00,22.7,6.4,29.71,ENE,57,5.0,7.0,49,0.00,,,0.00,Wunderground v.1.15,2013-02-17 09:59:00,
2013-02-17 05:06:00,22.7,6.4,29.70,NNW,336,6.0,10.0,49,0.00,,,0.00,Wunderground v.1.15,2013-02-17 10:06:00,
2013-02-17 05:12:00,22.7,6.4,29.69,NNE,15,5.0,5.0,49,0.00,,,0.00,Wunderground v.1.15,2013-02-17 10:12:00,
2013-02-17 05:18:00,22.5,6.2,29.70,NNE,31,4.0,11.0,49,0.00,,,0.00,Wunderground v.1.15,2013-02-17 10:18:00,
2013-02-17 05:23:00,22.5,6.2,29.69,NNW,344,6.0,12.0,49,0.00,,,0.00,Wunderground v.1.15,2013-02-17 10:23:00,
2013-02-17 05:29:00,22.5,6.2,29.69,NNE,19,7.0,7.0,49,0.00,,,0.00,Wunderground v.1.15,2013-02-17 10:29:00,
2013-02-17 05:36:00,22.4,6.1,29.69,North,5,6.0,14.0,49,0.00,,,0.00,Wunderground v.1.15,2013-02-17 10:36:00,
2013-02-17 05:41:00,22.4,5.6,29.69,NNE,26,5.0,16.0,48,0.00,,,0.00,Wunderground v.1.15,2013-02-17 10:41:00,
2013-02-17 05:47:00,22.4,5.2,29.69,NW,314,6.0,16.0,47,0.00,,,0.00,Wunderground v.1.15,2013-02-17 10:47:00,
2013-02-17 05:54:00,22.2,4.5,29.69,NNW,342,5.0,9.0,46,0.00,,,0.00,Wunderground v.1.15,2013-02-17 10:54:00,
2013-02-17 06:00:00,22.2,5.0,29.69,NNW,348,5.0,5.0,47,0.00,,,0.00,Wunderground v.1.15,2013-02-17 11:00:00,
2013-02-17 06:06:00,22.1,4.0,29.68,North,360,5.0,6.0,45,0.00,,,0.00,Wunderground v.1.15,2013-02-17 11:06:00,
2013-02-17 06:11:00,22.1,3.0,29.68,NNE,15,7.0,7.0,43,0.00,,,0.00,Wunderground v.1.15,2013-02-17 11:11:00,
2013-02-17 06:17:00,21.9,2.8,29.67,NNE,19,6.0,7.0,43,0.00,,,0.00,Wunderground v.1.15,2013-02-17 11:17:00,
2013-02-17 06:24:00,21.9,1.8,29.68,North,10,6.0,10.0,41,0.00,,,0.00,Wunderground v.1.15,2013-02-17 11:24:00,
2013-02-17 06:29:00,21.8,1.1,29.68,NNE,17,8.0,8.0,40,0.00,,,0.00,Wunderground v.1.15,2013-02-17 11:29:00,
2013-02-17 06:35:00,21.8,1.1,29.68,NNW,333,7.0,15.0,40,0.00,,,0.00,Wunderground v.1.15,2013-02-17 11:35:00,
2013-02-17 06:41:00,21.8,1.7,29.68,North,360,6.0,11.0,41,0.00,,,0.00,Wunderground v.1.15,2013-02-17 11:41:00,
2013-02-17 06:48:00,21.8,1.1,29.68,North,350,7.0,11.0,40,0.00,,,0.00,Wunderground v.1.15,2013-02-17 11:48:00,
2013-02-17 06:53:00,21.8,1.1,29.68,NNW,328,7.0,9.0,40,0.00,,,0.00,Wunderground v.1.15,2013-02-17 11:53:00,
2013-02-17 06:59:00,21.6,1.5,29.68,North,9,6.0,6.0,41,0.00,,,0.00,Wunderground v.1.15,2013-02-17 11:59:00,
2013-02-17 07:06:00,21.6,2.0,29.68,North,349,4.0,6.0,42,0.00,,,0.00,Wunderground v.1.15,2013-02-17 12:06:00,
2013-02-17 07:12:00,21.6,1.5,29.68,NNW,342,5.0,13.0,41,0.00,,,0.00,Wunderground v.1.15,2013-02-17 12:12:00,
2013-02-17 07:17:00,21.4,1.3,29.67,North,360,6.0,13.0,41,0.00,,,0.00,Wunderground v.1.15,2013-02-17 12:17:00,
2013-02-17 07:23:00,21.4,1.3,29.67,NE,41,6.0,16.0,41,0.00,,,0.00,Wunderground v.1.15,2013-02-17 12:23:00,
2013-02-17 07:29:00,21.4,0.2,29.67,West,269,8.0,8.0,39,0.00,,,0.00,Wunderground v.1.15,2013-02-17 12:29:00,
2013-02-17 07:35:00,21.4,0.2,29.67,ENE,61,9.0,9.0,39,0.00,,,0.00,Wunderground v.1.15,2013-02-17 12:35:00,
2013-02-17 07:41:00,21.4,0.8,29.67,NNW,336,8.0,8.0,40,0.00,,,0.00,Wunderground v.1.15,2013-02-17 12:41:00,
2013-02-17 07:47:00,21.4,0.2,29.67,WNW,301,7.0,11.0,39,0.00,,,0.00,Wunderground v.1.15,2013-02-17 12:47:00,
2013-02-17 07:53:00,21.4,-0.3,29.67,North,351,7.0,7.0,38,0.00,,,0.00,Wunderground v.1.15,2013-02-17 12:53:00,
2013-02-17 07:59:00,21.6,0.4,29.68,NW,321,6.0,9.0,39,0.00,,,0.00,Wunderground v.1.15,2013-02-17 12:59:00,
2013-02-17 08:05:00,21.6,-0.1,29.68,NNW,340,6.0,9.0,38,0.00,,,0.00,Wunderground v.1.15,2013-02-17 13:05:00,
2013-02-17 08:11:00,21.8,0.0,29.68,North,5,7.0,7.0,38,0.00,,,0.00,Wunderground v.1.15,2013-02-17 13:11:00,
2013-02-17 08:17:00,21.8,0.6,29.68,NW,311,5.0,7.0,39,0.00,,,0.00,Wunderground v.1.15,2013-02-17 13:17:00,
2013-02-17 08:23:00,21.9,0.1,29.68,NNW,330,3.0,4.0,38,0.00,,,0.00,Wunderground v.1.15,2013-02-17 13:23:00,
2013-02-17 08:29:00,22.1,-0.3,29.67,North,351,5.0,5.0,37,0.00,,,0.00,Wunderground v.1.15,2013-02-17 13:29:00,
2013-02-17 08:35:00,22.1,0.3,29.67,NNE,12,4.0,5.0,38,0.00,,,0.00,Wunderground v.1.15,2013-02-17 13:35:00,
2013-02-17 08:41:00,22.1,-0.3,29.67,NW,315,4.0,7.0,37,0.00,,,0.00,Wunderground v.1.15,2013-02-17 13:41:00,
2013-02-17 08:47:00,22.1,0.9,29.67,North,360,4.0,7.0,39,0.00,,,0.00,Wunderground v.1.15,2013-02-17 13:47:00,
2013-02-17 08:53:00,22.1,0.3,29.67,North,351,4.0,8.0,38,0.00,,,0.00,Wunderground v.1.15,2013-02-17 13:53:00,
2013-02-17 08:59:00,22.2,0.4,29.67,NNW,331,4.0,5.0,38,0.00,,,0.00,Wunderground v.1.15,2013-02-17 13:59:00,
2013-02-17 09:05:00,22.2,0.4,29.67,NNW,329,4.0,9.0,38,0.00,,,0.00,Wunderground v.1.15,2013-02-17 14:05:00,
2013-02-17 09:11:00,22.4,0.0,29.67,North,360,6.0,10.0,37,0.00,,,0.00,Wunderground v.1.15,2013-02-17 14:11:00,
2013-02-17 09:17:00,22.4,0.6,29.67,NNE,12,5.0,12.0,38,0.00,,,0.00,Wunderground v.1.15,2013-02-17 14:17:00,
2013-02-17 09:23:00,22.4,0.0,29.67,NE,46,5.0,7.0,37,0.00,,,0.00,Wunderground v.1.15,2013-02-17 14:23:00,
2013-02-17 09:29:00,22.4,0.6,29.67,NW,306,5.0,5.0,38,0.00,,,0.00,Wunderground v.1.15,2013-02-17 14:29:00,
2013-02-17 09:35:00,22.5,0.7,29.67,NNE,19,3.0,5.0,38,0.00,,,0.00,Wunderground v.1.15,2013-02-17 14:35:00,
2013-02-17 09:41:00,22.7,0.9,29.67,NW,315,3.0,3.0,38,0.00,,,0.00,Wunderground v.1.15,2013-02-17 14:41:00,
2013-02-17 09:47:00,22.9,1.0,29.66,North,350,3.0,9.0,38,0.00,,,0.00,Wunderground v.1.15,2013-02-17 14:47:00,
2013-02-17 09:53:00,23.0,0.6,29.66,NNW,331,4.0,8.0,37,0.00,,,0.00,Wunderground v.1.15,2013-02-17 14:53:00,
2013-02-17 09:59:00,23.3,0.2,29.66,NE,51,4.0,4.0,36,0.00,,,0.00,Wunderground v.1.15,2013-02-17 14:59:00,
2013-02-17 10:05:00,23.5,0.4,29.65,WNW,291,3.0,4.0,36,0.00,,,0.00,Wunderground v.1.15,2013-02-17 15:05:00,
2013-02-17 10:11:00,23.9,0.8,29.65,North,350,3.0,9.0,36,0.00,,,0.00,Wunderground v.1.15,2013-02-17 15:11:00,
2013-02-17 10:17:00,24.4,1.2,29.65,North,10,4.0,9.0,36,0.00,,,0.00,Wunderground v.1.15,2013-02-17 15:17:00,
2013-02-17 10:23:00,24.8,0.4,29.65,WNW,302,4.0,12.0,34,0.00,,,0.00,Wunderground v.1.15,2013-02-17 15:23:00,
2013-02-17 10:29:00,25.1,0.0,29.65,North,360,5.0,6.0,33,0.00,,,0.00,Wunderground v.1.15,2013-02-17 15:29:00,
2013-02-17 10:35:00,25.4,-0.4,29.65,North,360,7.0,7.0,32,0.00,,,0.00,Wunderground v.1.15,2013-02-17 15:35:00,
2013-02-17 10:41:00,25.8,-1.4,29.65,NW,323,7.0,7.0,30,0.00,,,0.00,Wunderground v.1.15,2013-02-17 15:41:00,
2013-02-17 10:47:00,26.1,-1.2,29.66,NW,312,7.0,7.0,30,0.00,,,0.00,Wunderground v.1.15,2013-02-17 15:47:00,
2013-02-17 10:53:00,26.6,0.0,29.66,WNW,290,6.0,6.0,31,0.00,,,0.00,Wunderground v.1.15,2013-02-17 15:53:00,
2013-02-17 10:59:00,27.3,-0.1,29.66,NNW,330,3.0,3.0,30,0.00,,,0.00,Wunderground v.1.15,2013-02-17 15:59:00,
2013-02-17 11:05:00,28.1,-0.1,29.66,North,350,3.0,6.0,29,0.00,,,0.00,Wunderground v.1.15,2013-02-17 16:05:00,
2013-02-17 11:11:00,28.5,-1.3,29.66,NNW,348,3.0,10.0,27,0.00,,,0.00,Wunderground v.1.15,2013-02-17 16:11:00,
2013-02-17 11:17:00,28.2,-1.6,29.66,WSW,254,4.0,10.0,27,0.00,,,0.00,Wunderground v.1.15,2013-02-17 16:17:00,
2013-02-17 11:23:00,28.2,-0.8,29.67,West,266,4.0,4.0,28,0.00,,,0.00,Wunderground v.1.15,2013-02-17 16:23:00,
2013-02-17 11:29:00,28.1,-2.4,29.67,WNW,301,5.0,5.0,26,0.00,,,0.00,Wunderground v.1.15,2013-02-17 16:29:00,
2013-02-17 11:35:00,28.1,-3.3,29.67,ENE,57,6.0,6.0,25,0.00,,,0.00,Wunderground v.1.15,2013-02-17 16:35:00,
2013-02-17 11:41:00,28.1,-1.7,29.67,NW,324,6.0,16.0,27,0.00,,,0.00,Wunderground v.1.15,2013-02-17 16:41:00,
2013-02-17 11:47:00,28.2,-1.6,29.67,WNW,300,6.0,16.0,27,0.00,,,0.00,Wunderground v.1.15,2013-02-17 16:47:00,
2013-02-17 11:53:00,28.2,-3.2,29.67,WNW,296,5.0,14.0,25,0.00,,,0.00,Wunderground v.1.15,2013-02-17 16:53:00,
2013-02-17 12:00:00,28.4,-2.2,29.67,NNW,345,5.0,14.0,26,0.00,,,0.00,Wunderground v.1.15,2013-02-17 17:00:00,
2013-02-17 12:06:00,28.1,-3.3,29.66,NNW,345,8.0,21.0,25,0.00,,,0.00,Wunderground v.1.15,2013-02-17 17:06:00,
2013-02-17 12:12:00,27.9,-2.6,29.67,WSW,252,8.0,12.0,26,0.00,,,0.00,Wunderground v.1.15,2013-02-17 17:12:00,
2013-02-17 12:18:00,28.4,-2.2,29.66,WNW,284,5.0,12.0,26,0.00,,,0.00,Wunderground v.1.15,2013-02-17 17:18:00,
2013-02-17 12:24:00,28.5,-2.1,29.67,WNW,289,5.0,20.0,26,0.00,,,0.00,Wunderground v.1.15,2013-02-17 17:24:00,
2013-02-17 12:30:00,28.7,-1.9,29.66,WSW,241,5.0,5.0,26,0.00,,,0.00,Wunderground v.1.15,2013-02-17 17:30:00,
2013-02-17 12:36:00,29.0,-0.9,29.66,NW,304,5.0,10.0,27,0.00,,,0.00,Wunderground v.1.15,2013-02-17 17:36:00,
2013-02-17 12:42:00,29.3,-1.4,29.66,WNW,300,5.0,9.0,26,0.00,,,0.00,Wunderground v.1.15,2013-02-17 17:42:00,
2013-02-17 12:48:00,29.3,-0.6,29.67,North,351,5.0,10.0,27,0.00,,,0.00,Wunderground v.1.15,2013-02-17 17:48:00,
2013-02-17 12:54:00,29.0,-1.7,29.67,NNW,346,8.0,16.0,26,0.00,,,0.00,Wunderground v.1.15,2013-02-17 17:54:00,
2013-02-17 13:00:00,28.5,-2.1,29.67,NNE,15,9.0,9.0,26,0.00,,,0.00,Wunderground v.1.15,2013-02-17 18:00:00,
2013-02-17 13:06:00,28.8,-1.8,29.67,NW,310,6.0,9.0,26,0.00,,,0.00,Wunderground v.1.15,2013-02-17 18:06:00,
2013-02-17 13:12:00,28.8,-1.8,29.67,WNW,298,6.0,16.0,26,0.00,,,0.00,Wunderground v.1.15,2013-02-17 18:12:00,
2013-02-17 13:18:00,28.4,-2.2,29.67,NNW,342,8.0,17.0,26,0.00,,,0.00,Wunderground v.1.15,2013-02-17 18:18:00,
2013-02-17 13:24:00,28.1,-2.4,29.67,NW,311,10.0,14.0,26,0.00,,,0.00,Wunderground v.1.15,2013-02-17 18:24:00,
2013-02-17 13:30:00,28.1,-2.4,29.67,NNW,333,9.0,9.0,26,0.00,,,0.00,Wunderground v.1.15,2013-02-17 18:30:00,
2013-02-17 13:36:00,28.1,-1.7,29.67,NNW,335,7.0,9.0,27,0.00,,,0.00,Wunderground v.1.15,2013-02-17 18:36:00,
2013-02-17 13:41:00,27.8,-1.9,29.68,NNW,341,7.0,7.0,27,0.00,,,0.00,Wunderground v.1.15,2013-02-17 18:41:00,
2013-02-17 13:48:00,27.5,-1.4,29.68,NW,308,6.0,8.0,28,0.00,,,0.00,Wunderground v.1.15,2013-02-17 18:48:00,
2013-02-17 13:54:00,27.6,-2.1,29.68,West,279,6.0,9.0,27,0.00,,,0.00,Wunderground v.1.15,2013-02-17 18:54:00,
2013-02-17 14:00:00,27.5,-3.0,29.68,NNW,346,8.0,10.0,26,0.00,,,0.00,Wunderground v.1.15,2013-02-17 19:00:00,
2013-02-17 14:06:00,27.5,-3.0,29.69,NNW,348,7.0,11.0,26,0.00,,,0.00,Wunderground v.1.15,2013-02-17 19:06:00,
2013-02-17 14:11:00,27.6,-2.9,29.68,NNW,329,6.0,10.0,26,0.00,,,0.00,Wunderground v.1.15,2013-02-17 19:11:00,
2013-02-17 14:18:00,27.5,-2.2,29.68,NNW,348,8.0,10.0,27,0.00,,,0.00,Wunderground v.1.15,2013-02-17 19:18:00,
2013-02-17 14:24:00,27.6,-2.9,29.68,NE,38,7.0,9.0,26,0.00,,,0.00,Wunderground v.1.15,2013-02-17 19:24:00,
2013-02-17 14:29:00,27.5,-2.2,29.69,WNW,288,8.0,12.0,27,0.00,,,0.00,Wunderground v.1.15,2013-02-17 19:29:00,
2013-02-17 14:35:00,27.5,-1.4,29.69,NW,323,7.0,12.0,28,0.00,,,0.00,Wunderground v.1.15,2013-02-17 19:35:00,
2013-02-17 14:42:00,27.6,-2.1,29.69,West,268,8.0,12.0,27,0.00,,,0.00,Wunderground v.1.15,2013-02-17 19:42:00,
2013-02-17 14:48:00,27.6,-2.9,29.69,WNW,296,7.0,12.0,26,0.00,,,0.00,Wunderground v.1.15,2013-02-17 19:48:00,
2013-02-17 14:54:00,27.5,-1.4,29.69,NW,311,7.0,7.0,28,0.00,,,0.00,Wunderground v.1.15,2013-02-17 19:54:00,
2013-02-17 14:59:00,27.8,-1.1,29.70,NNW,333,4.0,6.0,28,0.00,,,0.00,Wunderground v.1.15,2013-02-17 19:59:00,
2013-02-17 15:06:00,27.9,-1.8,29.70,NNW,333,4.0,6.0,27,0.00,,,0.00,Wunderground v.1.15,2013-02-17 20:06:00,
2013-02-17 15:12:00,27.8,-2.7,29.70,NNW,331,5.0,11.0,26,0.00,,,0.00,Wunderground v.1.15,2013-02-17 20:12:00,
2013-02-17 15:17:00,27.5,-2.2,29.70,WNW,298,6.0,11.0,27,0.00,,,0.00,Wunderground v.1.15,2013-02-17 20:17:00,
2013-02-17 15:23:00,27.3,-1.6,29.70,NW,319,5.0,10.0,28,0.00,,,0.00,Wunderground v.1.15,2013-02-17 20:23:00,
2013-02-17 15:30:00,27.0,-2.6,29.71,NNW,333,6.0,10.0,27,0.00,,,0.00,Wunderground v.1.15,2013-02-17 20:30:00,
2013-02-17 15:35:00,26.7,-2.9,29.71,WNW,285,7.0,10.0,27,0.00,,,0.00,Wunderground v.1.15,2013-02-17 20:35:00,
2013-02-17 15:41:00,26.6,-0.7,29.71,West,269,4.0,5.0,30,0.00,,,0.00,Wunderground v.1.15,2013-02-17 20:41:00,
2013-02-17 15:48:00,26.3,-1.0,29.71,WSW,240,3.0,6.0,30,0.00,,,0.00,Wunderground v.1.15,2013-02-17 20:48:00,
2013-02-17 15:54:00,26.0,-1.3,29.72,WNW,296,4.0,6.0,30,0.00,,,0.00,Wunderground v.1.15,2013-02-17 20:54:00,
2013-02-17 15:59:00,25.8,-2.1,29.72,WSW,253,4.0,4.0,29,0.00,,,0.00,Wunderground v.1.15,2013-02-17 20:59:00,
2013-02-17 16:05:00,25.8,-0.7,29.72,WNW,292,4.0,5.0,31,0.00,,,0.00,Wunderground v.1.15,2013-02-17 21:05:00,
2013-02-17 16:11:00,25.7,-0.8,29.72,NNW,338,5.0,10.0,31,0.00,,,0.00,Wunderground v.1.15,2013-02-17 21:11:00,
2013-02-17 16:18:00,25.6,-0.9,29.73,WNW,299,4.0,10.0,31,0.00,,,0.00,Wunderground v.1.15,2013-02-17 21:18:00,
2013-02-17 16:23:00,25.6,-1.6,29.73,NW,320,4.0,11.0,30,0.00,,,0.00,Wunderground v.1.15,2013-02-17 21:23:00,
2013-02-17 16:29:00,25.7,-1.5,29.73,North,360,3.0,3.0,30,0.00,,,0.00,Wunderground v.1.15,2013-02-17 21:29:00,
2013-02-17 16:35:00,25.4,-1.8,29.73,NNW,330,4.0,10.0,30,0.00,,,0.00,Wunderground v.1.15,2013-02-17 21:35:00,
2013-02-17 16:42:00,25.1,-2.0,29.74,North,351,5.0,5.0,30,0.00,,,0.00,Wunderground v.1.15,2013-02-17 21:42:00,
2013-02-17 16:47:00,24.7,-3.8,29.74,West,260,4.0,10.0,28,0.00,,,0.00,Wunderground v.1.15,2013-02-17 21:47:00,
2013-02-17 16:53:00,24.5,-1.9,29.75,South,175,5.0,8.0,31,0.00,,,0.00,Wunderground v.1.15,2013-02-17 21:53:00,
2013-02-17 16:59:00,24.2,-2.1,29.75,NNW,338,5.0,5.0,31,0.00,,,0.00,Wunderground v.1.15,2013-02-17 21:59:00,
2013-02-17 17:06:00,23.9,-2.4,29.75,NNW,333,5.0,11.0,31,0.00,,,0.00,Wunderground v.1.15,2013-02-17 22:06:00,
2013-02-17 17:11:00,23.6,-2.0,29.76,NNE,13,5.0,9.0,32,0.00,,,0.00,Wunderground v.1.15,2013-02-17 22:11:00,
2013-02-17 17:17:00,23.3,-2.3,29.76,NNW,328,6.0,9.0,32,0.00,,,0.00,Wunderground v.1.15,2013-02-17 22:17:00,
2013-02-17 17:23:00,23.0,-1.9,29.77,NW,315,5.0,12.0,33,0.00,,,0.00,Wunderground v.1.15,2013-02-17 22:23:00,
2013-02-17 17:29:00,22.7,-1.5,29.77,North,350,4.0,4.0,34,0.00,,,0.00,Wunderground v.1.15,2013-02-17 22:29:00,
2013-02-17 17:35:00,22.4,-1.8,29.78,WSW,256,4.0,6.0,34,0.00,,,0.00,Wunderground v.1.15,2013-02-17 22:35:00,
2013-02-17 17:41:00,21.9,-2.2,29.78,NNW,333,4.0,11.0,34,0.00,,,0.00,Wunderground v.1.15,2013-02-17 22:41:00,
2013-02-17 17:47:00,21.6,-1.9,29.79,NW,315,5.0,12.0,35,0.00,,,0.00,Wunderground v.1.15,2013-02-17 22:47:00,
2013-02-17 17:53:00,21.3,-2.2,29.79,North,360,5.0,7.0,35,0.00,,,0.00,Wunderground v.1.15,2013-02-17 22:53:00,
2013-02-17 17:59:00,21.1,-1.7,29.80,WSW,256,4.0,4.0,36,0.00,,,0.00,Wunderground v.1.15,2013-02-17 22:59:00,
2013-02-17 18:05:00,20.8,-1.4,29.80,WSW,258,4.0,7.0,37,0.00,,,0.00,Wunderground v.1.15,2013-02-17 23:05:00,
2013-02-17 18:11:00,20.5,-1.1,29.81,WNW,284,3.0,3.0,38,0.00,,,0.00,Wunderground v.1.15,2013-02-17 23:11:00,
2013-02-17 18:17:00,20.2,-0.8,29.81,NNW,340,2.0,5.0,39,0.00,,,0.00,Wunderground v.1.15,2013-02-17 23:17:00,
2013-02-17 18:23:00,19.9,-1.1,29.82,West,275,2.0,5.0,39,0.00,,,0.00,Wunderground v.1.15,2013-02-17 23:23:00,
2013-02-17 18:29:00,19.7,-0.8,29.82,West,277,2.0,2.0,40,0.00,,,0.00,Wunderground v.1.15,2013-02-17 23:29:00,
2013-02-17 18:35:00,19.5,-0.9,29.82,NW,310,3.0,6.0,40,0.00,,,0.00,Wunderground v.1.15,2013-02-17 23:35:00,
2013-02-17 18:41:00,19.4,-0.5,29.83,WNW,292,2.0,6.0,41,0.00,,,0.00,Wunderground v.1.15,2013-02-17 23:41:00,
2013-02-17 18:47:00,19.1,-0.8,29.83,NW,309,2.0,6.0,41,0.00,,,0.00,Wunderground v.1.15,2013-02-17 23:47:00,
2013-02-17 18:53:00,18.9,-1.0,29.84,West,265,2.0,4.0,41,0.00,,,0.00,Wunderground v.1.15,2013-02-17 23:53:00,
2013-02-17 18:59:00,18.9,-1.0,29.84,WSW,257,3.0,5.0,41,0.00,,,0.00,Wunderground v.1.15,2013-02-17 23:59:00,
2013-02-17 19:05:00,18.8,-0.5,29.84,WSW,256,2.0,5.0,42,0.00,,,0.00,Wunderground v.1.15,2013-02-18 00:05:00,
2013-02-17 19:11:00,18.6,-1.2,29.84,WNW,288,2.0,2.0,41,0.00,,,0.00,Wunderground v.1.15,2013-02-18 00:11:00,
2013-02-17 19:17:00,18.4,-1.4,29.85,WSW,250,3.0,9.0,41,0.00,,,0.00,Wunderground v.1.15,2013-02-18 00:17:00,
2013-02-17 19:23:00,18.1,-1.7,29.85,WSW,242,3.0,12.0,41,0.00,,,0.00,Wunderground v.1.15,2013-02-18 00:23:00,
2013-02-17 19:29:00,18.0,-1.8,29.86,NW,314,3.0,7.0,41,0.00,,,0.00,Wunderground v.1.15,2013-02-18 00:29:00,
2013-02-17 19:35:00,17.8,-1.5,29.86,NW,306,2.0,7.0,42,0.00,,,0.00,Wunderground v.1.15,2013-02-18 00:35:00,
2013-02-17 19:41:00,17.7,-1.0,29.86,West,277,3.0,3.0,43,0.00,,,0.00,Wunderground v.1.15,2013-02-18 00:41:00,
2013-02-17 19:47:00,17.5,-1.2,29.86,North,351,3.0,13.0,43,0.00,,,0.00,Wunderground v.1.15,2013-02-18 00:47:00,
2013-02-17 19:53:00,17.3,-1.4,29.87,WNW,302,4.0,4.0,43,0.00,,,0.00,Wunderground v.1.15,2013-02-18 00:53:00,
2013-02-17 19:59:00,17.2,-1.0,29.87,North,5,3.0,3.0,44,0.00,,,0.00,Wunderground v.1.15,2013-02-18 00:59:00,
2013-02-17 20:05:00,17.0,-1.2,29.87,WNW,292,2.0,3.0,44,0.00,,,0.00,Wunderground v.1.15,2013-02-18 01:05:00,
2013-02-17 20:11:00,16.9,-1.3,29.88,NNW,338,2.0,3.0,44,0.00,,,0.00,Wunderground v.1.15,2013-02-18 01:11:00,
2013-02-17 20:17:00,16.7,-2.0,29.88,WNW,283,3.0,6.0,43,0.00,,,0.00,Wunderground v.1.15,2013-02-18 01:17:00,
2013-02-17 20:23:00,16.5,-1.7,29.88,NNW,336,3.0,4.0,44,0.00,,,0.00,Wunderground v.1.15,2013-02-18 01:23:00,
2013-02-17 20:29:00,16.5,-1.7,29.88,NW,311,2.0,5.0,44,0.00,,,0.00,Wunderground v.1.15,2013-02-18 01:29:00,
2013-02-17 20:35:00,16.4,-1.3,29.89,NW,305,2.0,5.0,45,0.00,,,0.00,Wunderground v.1.15,2013-02-18 01:35:00,
2013-02-17 20:41:00,16.2,-1.5,29.89,West,278,1.0,1.0,45,0.00,,,0.00,Wunderground v.1.15,2013-02-18 01:41:00,
2013-02-17 20:47:00,16.1,-1.5,29.89,NW,313,1.0,5.0,45,0.00,,,0.00,Wunderground v.1.15,2013-02-18 01:47:00,
2013-02-17 20:53:00,15.9,-1.3,29.89,NW,306,2.0,3.0,46,0.00,,,0.00,Wunderground v.1.15,2013-02-18 01:53:00,
2013-02-17 20:59:00,15.7,-1.4,29.90,West,272,2.0,2.0,46,0.00,,,0.00,Wunderground v.1.15,2013-02-18 01:59:00,
2013-02-17 21:05:00,15.7,-1.9,29.90,WNW,288,1.0,2.0,45,0.00,,,0.00,Wunderground v.1.15,2013-02-18 02:05:00,
2013-02-17 21:11:00,15.6,-2.0,29.90,WNW,292,2.0,3.0,45,0.00,,,0.00,Wunderground v.1.15,2013-02-18 02:11:00,
2013-02-17 21:17:00,15.6,-2.0,29.91,WSW,251,2.0,9.0,45,0.00,,,0.00,Wunderground v.1.15,2013-02-18 02:17:00,
2013-02-17 21:23:00,15.4,-2.2,29.91,WNW,298,3.0,3.0,45,0.00,,,0.00,Wunderground v.1.15,2013-02-18 02:23:00,
2013-02-17 21:29:00,15.4,-2.2,29.91,WSW,253,2.0,2.0,45,0.00,,,0.00,Wunderground v.1.15,2013-02-18 02:29:00,
2013-02-17 21:35:00,15.2,-1.9,29.91,WNW,291,2.0,2.0,46,0.00,,,0.00,Wunderground v.1.15,2013-02-18 02:35:00,
2013-02-17 21:41:00,15.2,-1.9,29.91,NNW,333,1.0,1.0,46,0.00,,,0.00,Wunderground v.1.15,2013-02-18 02:41:00,
2013-02-17 21:47:00,15.1,-1.5,29.91,WNW,291,1.0,1.0,47,0.00,,,0.00,Wunderground v.1.15,2013-02-18 02:47:00,
2013-02-17 21:53:00,15.1,-2.0,29.92,WNW,294,1.0,10.0,46,0.00,,,0.00,Wunderground v.1.15,2013-02-18 02:53:00,
2013-02-17 21:59:00,15.1,-2.0,29.92,NW,307,2.0,2.0,46,0.00,,,0.00,Wunderground v.1.15,2013-02-18 02:59:00,
2013-02-17 22:05:00,15.1,-2.0,29.92,WNW,282,2.0,3.0,46,0.00,,,0.00,Wunderground v.1.15,2013-02-18 03:05:00,
2013-02-17 22:11:00,15.1,-2.0,29.92,NW,322,1.0,1.0,46,0.00,,,0.00,Wunderground v.1.15,2013-02-18 03:11:00,
2013-02-17 22:17:00,15.1,-2.0,29.92,WNW,294,2.0,2.0,46,0.00,,,0.00,Wunderground v.1.15,2013-02-18 03:17:00,
2013-02-17 22:23:00,14.9,-1.7,29.92,West,275,1.0,3.0,47,0.00,,,0.00,Wunderground v.1.15,2013-02-18 03:23:00,
2013-02-17 22:29:00,14.9,-1.7,29.92,West,263,0.0,0.0,47,0.00,,,0.00,Wunderground v.1.15,2013-02-18 03:29:00,
2013-02-17 22:35:00,14.9,-1.3,29.92,WNW,284,0.0,2.0,48,0.00,,,0.00,Wunderground v.1.15,2013-02-18 03:35:00,
2013-02-17 22:41:00,14.9,-1.3,29.92,North,349,1.0,4.0,48,0.00,,,0.00,Wunderground v.1.15,2013-02-18 03:41:00,
2013-02-17 22:47:00,14.8,-1.4,29.92,WNW,287,0.0,4.0,48,0.00,,,0.00,Wunderground v.1.15,2013-02-18 03:47:00,
2013-02-17 22:53:00,14.8,-1.4,29.92,WNW,298,0.0,0.0,48,0.00,,,0.00,Wunderground v.1.15,2013-02-18 03:53:00,
2013-02-17 22:59:00,14.9,-1.3,29.92,West,273,1.0,2.0,48,0.00,,,0.00,Wunderground v.1.15,2013-02-18 03:59:00,
2013-02-17 23:05:00,14.9,-1.3,29.92,SW,227,1.0,2.0,48,0.00,,,0.00,Wunderground v.1.15,2013-02-18 04:05:00,
2013-02-17 23:11:00,14.9,-0.8,29.93,NW,315,1.0,1.0,49,0.00,,,0.00,Wunderground v.1.15,2013-02-18 04:11:00,
2013-02-17 23:17:00,14.9,-1.3,29.93,NW,326,1.0,6.0,48,0.00,,,0.00,Wunderground v.1.15,2013-02-18 04:17:00,
2013-02-17 23:23:00,14.9,-0.8,29.93,WNW,294,1.0,1.0,49,0.00,,,0.00,Wunderground v.1.15,2013-02-18 04:23:00,
2013-02-17 23:29:00,14.9,-0.8,29.94,WNW,299,1.0,1.0,49,0.00,,,0.00,Wunderground v.1.15,2013-02-18 04:29:00,
2013-02-17 23:35:00,14.9,-0.8,29.94,NW,306,1.0,1.0,49,0.00,,,0.00,Wunderground v.1.15,2013-02-18 04:35:00,
2013-02-17 23:41:00,14.9,-0.8,29.94,South,169,1.0,2.0,49,0.00,,,0.00,Wunderground v.1.15,2013-02-18 04:41:00,
2013-02-17 23:47:00,14.9,-0.8,29.94,NW,325,1.0,2.0,49,0.00,,,0.00,Wunderground v.1.15,2013-02-18 04:47:00,
2013-02-17 23:53:00,14.9,-0.8,29.94,WSW,250,1.0,1.0,49,0.00,,,0.00,Wunderground v.1.15,2013-02-18 04:53:00,
2013-02-17 23:58:00,14.9,-0.8,29.94,WNW,300,1.0,2.0,49,0.00,,,0.00,Wunderground v.1.15,2013-02-18 04:58:00,